Zurück zum Katalog

DELTA 1 DEB

AktivSSO
NORAD 7017·DEBRIS·🇺🇸 United States

Gestartet Nov 6, 1973 von Vandenberg Space Force Base

Loading…

Nächste Überflüge (nächste 24 Stunden)

TLE

AktuellSource: Space-Track

Epoche: Sep 13, 2026, 07:34 UTC

1 07017U 73086H   26256.31592817 -.00000059  00000-0 -76061-4 0  9996
2 07017 102.0183 174.4915 0149468 252.3315 231.9272 12.51873004398339

Verfolge DELTA 1 DEB in Echtzeit mit AllMySat

Download on the App Store